Weather in Zhemchuzhnaya

Russia / Murmansk Oblast     66°55′21″N   32°12′33″E
temp.,
°C
wind,
m/s
gust,
m/s
humid.,
%
clouds,
%
prec.,
mm/h
press.,
hPa
HPBL,
m
12 may, wed
wed1200:00+5w11100100 0.0 101622
03:00+4w1198100 0.0 101711
06:00+5wnw1197100 0.3 101913
09:00+6nne1194100 0.3 102080
12:00+10ne118199 0.0 1022391
15:00+7ese1292100 0.1 102276
18:00+9ese1486100 0.0 1020241
21:00+7ese2793100 0.1 1019181
13 may, thu
thu1300:00+6se269097 0.0 1018186
03:00+4ese129891 0.0 101789
06:00+5se119787 0.0 101680
09:00+8se1190100 0.0 1016141
12:00+11sse138297 0.0 1015201
15:00+14se2472100 0.0 1014336
18:00+13ese227858 0.0 1013104
21:00+8e1193100 0.0 101339
14 may, fri
fri1400:00+10n219268 0.6 101321
03:00+7n489878 1.1 1013219
06:00+6n51088100 0.0 1014337
09:00+6n4687100 0.1 1015331
12:00+5nnw3488100 0.0 1016339
15:00+6n3583100 0.1 1016415
18:00+5ne2484100 0.0 1016307
21:00+3ne3589100 0.4 1016331
15 may, sat
sat1500:00+2ne2490100 0.3 1016255
03:00+1ne2492100 1.7 1016247
06:00+1ne2497100 3.8 1015182
09:00+1ne2489100 4.2 1016297
12:00+2ne348499 0.0 1016387
15:00+2ne2385100 0.1 1015368
18:00+1ne2490100 0.3 1015302
21:00+1ne2590100 0.4 1015315
16 may, sun
sun1600:00+1nne3689100 0.1 1015322
03:00+1nne378999 0.1 1015386
06:00+1n3789100 0.1 1015406
09:00+2n368293 0.1 1016476
12:00+4ne357070 0.0 1017783
15:00+6ne346560 0.0 1018894
18:00+5ene336448 0.0 1019857
21:00+3ene2471100 0.0 1020242